Погода в Невинномысске

Погода в Невинномысске : погода сейчас, прогноз погоды и архив. Всё, что Вы хотите узнать о погоде в Невинномысске!

Поиск расширенной информации на нашем сайте:

Другие новости

Новости СМИ2

Главная страница сайта

Новости сайта

02.10.2013

Напоминаем, что на нашем новом сайте вы можете получить высокодетализированные прогнозы погоды по пунктам России, СНГ и мира (включающие важные для авиации метеовеличины, такие как направление и скорость ветра, видимость, явления погоды, количество и форма облачности, нижняя и верхняя граница облачности), а также ознакомиться с разнообразными материалами по авиационной метеорологии и подборкой полезных ссылок на эту тему.

Сайт Метеоцентр.Азия посвящён разработке технологий оптимизации авиаметеорологического обслуживания, включая проектирование и перспективное создание нескольких автоматизированных авиаметеорологических систем:
- система выпуска высокодетальных прогностических карт явлений погоды для нижнего воздушного пространства по России и ближнему зарубежью;
- система верификации прогнозов TAF (выпускаемых синоптиками официальных АМСГ РФ и ближнего зарубежья) и AUTOTAF (выпускаемых сайтом Метеоцентр.Азия) - выявление ошибок, онлайн-сопоставление с фактической погодой METAR, автоматическое внесение коррективов в прогнозы при резком отклонении фактической погоды от прогноза, подсчёт оправдываемости прогнозов по элементам и в целом;
- система обработки, анализа и отображения авиаметеорологической информации для применения провайдерами метеорологической информации.

Рекомендуем: Возвращаемся в Гондар и, заселившись в гостиницу.

Погода в Невинномысске - сегодня

Время (UTC), дата Ветер
(°,м/с) 
Видим.   Явления Облачность Т
(°С)
Тd
(°С)
f(%) Тe
(°С)
Pmin
(гПа)
dP
(гПа)
Po
(мм)
O2
(г/м3)
Тmin Tmax R s Состояние
почвы
06 21.03.17 240 (ЮЗ) 20000 м    10/0 средняя 
[Ac cast]
+4.9 -0.3 69 +5  1014.8  0.7  730  289  -0.3         
09 21.03.17 260 (З) 20000 м    9/8 600 м кучево-дожд., средняя 
[Cb calv|Ac trans]
+6.9 -1.2 56 +6  1014.3  -0.2  730  287           
12 21.03.17 270 (З) 20000 м  {ливн. осадки}  8/8 600 м 
[Cu hum]
+9 -1.5 48 +8  1013.4  -0.5  729  285           
15 21.03.17 290 (З) 6-12{12}  20000 м    8/8 600 м 
[Sc diur, vesp]
+5.6 -0.6 64 +3  1015.5  1.5  731  288    +9       
18 21.03.17 250 (З) 3{12}  20000 м    10/0 верхняя 
[Ci fib]
+3.3 -0.6 76 +2  1016.6  0.6  731  291           
21 21.03.17 240 (ЮЗ) 20000 м    ясно 
+2 -1.1 80 +1  1017.1  0.3  731  293           
00 22.03.17 230 (ЮЗ) 20000 м    10/0 верхняя 
[Ci fib]
+2.6 -1.8 73 +1  1017.4  0.3  732  292           
03 22.03.17 230 (ЮЗ) 20000 м    10/0 верхняя 
[Ci fib]
+2.3 -2.2 72 +1  1018  0.6  732  293  +1.5         
06 22.03.17 250 (З) 20000 м    10/0 средняя 
[Ac As]
+3.8 -0.5 73 +2  1018.2  0.4  732  291           
09 22.03.17 260 (З) 4{10}  20000 м  слаб. ливневой дождь  10/10 600 м кучево-дожд. 
[Cb cap]
+3.4 +0.8 83 +1  1018.8  0.6  733  291           
12 22.03.17 270 (З) 4{10}  10 км  слаб. ливневой дождь  10/10 600 м кучево-дожд. 
[Cb calv]
+4.3 +1.4 81 +3  1018.8  0.1  733  290           
15 22.03.17 260 (З) 10 км  слаб. ливневой дождь  10/10 600 м кучево-дожд. 
[Cb cap]
+3.5 +1.8 89 +2  1020.1  1.1  734  292    +4.3     
18 22.03.17 220 (ЮЗ) 20000 м  {ливн. осадки}  10/10 600 м 
[Sc diur, vesp]
+3.2 +1.2 87 +3  1021.2  734  292           
21 22.03.17 250 (З) 4000 м  слаб. дождь  10/10 300 м 
[Frnb|Ns]
+3.8 +1.9 87 +5  1020.6  -0.5  734  291           
00 23.03.17 240 (ЮЗ) 20000 м  {дождь}  10/10 300 м 
[Frnb|Ns]
+4.6 +2.3 85 +4  1020.6  0.1  734  290           
03 23.03.17 270 (З) 20000 м  {дождь}  10/0 средняя 
[Ac und]
+4.6 +1.8 82 +4  1021.5  0.9  735  291  +3.2       
06 23.03.17 270 (З) 20000 м    10/0 средняя 
[Ac und]
+4.7 +1.6 80 +4  1022.8  1.2  736  291           
09 23.03.17 290 (З) 20000 м    10/0 средняя 
[Ac und]
+5.7 +2 77 +5  1023.2  0.5  736  290           
12 23.03.17 320 (СЗ) 20000 м    10/0 средняя 
[Ac und]
+8 +1.7 64 +9  1022.8  736  288           
15 23.03.17 050 (СВ) 20000 м    10/0 средняя, верхняя 
[Ac trans|Ci sp]
+6.3 +2.5 77 +5  1023.9  0.9  737  290    +8.3       
18 23.03.17 090 (В) 20000 м    3/0 верхняя 
[Ci fib]
+3.7 +1.6 86 +3  1025.8  1.4  738  293           
21 23.03.17 240 (ЮЗ) 20000 м    ясно 
+0.8 -0.3 92 +1  1026.5  0.2  738  296           
00 24.03.17 210 (ЮЗ) 20000 м    10/0 средняя 
[Ac und]
+1.8 +0.8 93 +3  1026.3  738  295           
03 24.03.17 200 (Ю) 20000 м    10/0 средняя 
[Ac As]
+0.8 -0.2 93 +1  1026.9  0.4  738  297  -0.9         
06 24.03.17 тихо ()   0500 м  туман  ясно 
+2.7 +1.9 94 +3  1027.1  0.5  739  294           
Время (UTC), дата Ветер
(°,м/с) 
Видим.   Явления Облачность Т
(°С)
Тd
(°С)
f(%) Тe
(°С)
Pmin
(гПа)
dP
(гПа)
Po
(мм)
O2
(г/м3)
Тmin Tmax R s Состояние
почвы

Для получения пояснительной информации подведите курсор к названию столбца.

ПОГОДА в Невинномысске - архив

Всё, что Вы хотите узнать о погоде в Невинномысске - удобно и подробно!

Выберите нужную дату (начиная с 1 января 2015* года) и нажмите кнопку "Найти".
Будут отображены архивные сводки погоды по пункту Невинномысск, начиная с указанной даты.


Отображать данные в формате CSV (для использования в таблицах Excel)


Внимание! Наш архив погоды предназначен исключительно для личного некоммерческого использования в познавательных целях. Если Вам необходимы официальные справки о состоянии погоды (для производственных, юридических, коммерческих и т.п. целей), обращайтесь в органы Росгидромета.

*Примечание: данная дата относится к архиву по метеостанциям СССР (Россия, СНГ, Балтия).
Архив по метеостанциям Зарубежной Европы и Азии (кроме Китая) хранится 10 дней, по другим регионам земного шара (Китай, Африка, Америка, Австралия, Океания) - 1 день.

Невинномысск - район местоположения метеостанции


Название, широта, долгота, высота метеостанции:
Невинномысск 44.6°ш. 42°д. 343 м над ур. моря [Российская Федерация]

Дополнительная информация

В oтличие oт бoльшинства пoгoдных сайтoв мы публикуем пoдрoбную метеoинфoрмацию в детальнoм прoфессиoнальнoм фoрмате.

Характеристики температуры и влажнoсти вoздуха измеряются на высoте 2 м в тени вдали oт зданий и деревьев.
Скoрoсть ветра измеряется на высoте 10 м (на урoвне рoста челoвека скoрoсть ветра ниже в 1.5-2 раза). Если метеoстанция нахoдится в гoрoде или в лесу, тo скoрoсть ветра занижена на 2-4 м/с пo сравнению с oткрытым местoм. Скoрoсть ветра над акватoриями крупных рек и oзёр, а также на вершинах хoлмoв на 2-5 м/с выше, чем в oбычных услoвиях.
Атмoсфернoе давление в разных тoчках местнoсти мoжет значительнo oтличаться oт давления на метеoстанции, в зависимoсти oт услoвий рельефа (при пoдъёме на 10 м давление пoнижается примернo на 1 мм рт.ст.).